Location: Newark
(11.2914°S, 14.4718°E)
Time: 20:21:45
(UTC+00:00)

Vanguard 2 - Pass Details

Date: 18 September 2019
Orbit: 554 x 2938 km, 32.9° (Epoch: 13 October)

Event Time Altitude Azimuth Distance (km) Brightness Sun altitude
Rises 19:46:26 0° 233° (SW) 5,686 12.6 -42.0°
Reaches altitude 10° 19:49:59 10° 227° (SW) 4,952 12.1 -42.8°
Enters shadow 20:03:52 52° 164° (SSE) 3,318 10.4 -46.2°
